053  
ASUS42 KILM 210213  
RWRILM  
RWRILM  
REGIONAL HOURLY WEATHER ROUNDUP  
NATIONAL WEATHER SERVICE WILMINGTON NC  
900 PM EST MON NOV 20 2017  
 
NOTE: "FAIR" INDICATES FEW OR NO CLOUDS BELOW 12,000 FEET WITH NO  
SIGNIFICANT WEATHER AND/OR S TO VISIBILITY
.  
   
..............WFO WILMINGTON COUNTY WARNING AREA............
 
 
   
.....COASTAL NC AND SC COUNTIES...
 
 
 
CITY SKY/WX TMP DP RH WIND PRES REMARKS
 
WILMINGTON CLOUDY 41 38 89 CALM 30.26S  
N MYRTLE BEACH CLEAR 40 38 93 CALM 30.26R  
MYRTLE BEACH CLEAR 41 39 93 CALM 30.28R  
   
.....INLAND NC AND SC COUNTIES....
 
 
 
CITY SKY/WX TMP DP RH WIND PRES REMARKS
 
LUMBERTON CLOUDY 32 31 96 CALM 30.25R  
ELIZABETHTOWN NOT AVBL  
WHITEVILLE CLOUDY 40 36 85 CALM 30.25R  
FLORENCE CLEAR 39 33 79 CALM 30.26R  
DARLINGTON CLEAR 37 30 75 CALM 30.26R  
KINGSTREE FAIR 36 34 93 CALM 30.26S  
HARTSVILLE FAIR 37 28 70 CALM 30.25S  
BENNETTSVILLE FAIR 34 32 93 CALM 30.25S  
CONWAY FAIR 36 36 100 CALM 30.27R  
GEORGETOWN FAIR 36 36 100 CALM 30.27S  
MARION FAIR 37 32 81 CALM 30.27R  
   
...................REST OF NORTH CAROLINA...................
 
 
   
........EASTERN NC......
 
 
 
CITY SKY/WX TMP DP RH WIND PRES REMARKS
 
CAPE HATTERAS CLOUDY 40 37 89 NE3 30.26F  
JACKSONVILLE CLOUDY 35 33 92 CALM 30.27R  
MOREHEAD CITY PTCLDY 41 37 86 CALM 30.28R  
KENANSVILLE CLOUDY 34 30 86 CALM 30.26S  
NEW BERN CLOUDY 36 36 100 CALM 30.28R  
ELIZABETH CITY CLEAR 41 36 82 CALM 30.27R  
   
........CENTRAL NC......
 
 
 
CITY SKY/WX TMP DP RH WIND PRES REMARKS
 
RALEIGH DURHAM CLOUDY 41 29 62 CALM 30.24R  
ROCKY MOUNT CLOUDY 34 33 96 CALM 30.26R  
ROANOKE RAPIDS NOT AVBL  
FAYETTEVILLE PTCLDY 41 33 73 S3 30.24S  
HOFFMAN CLOUDY 34 29 83 CALM 30.25R  
   
........WESTERN NC......
 
 
 
CITY SKY/WX TMP DP RH WIND PRES REMARKS
 
CHARLOTTE CLOUDY 44 28 53 S6 30.23R  
GREENSBORO CLOUDY 42 25 50 SW3 30.21R  
HICKORY NOT AVBL  
BOONE NOT AVBL  
ASHEVILLE NOT AVBL  
   
....................REST OF SOUTH CAROLINA..................
 
 
   
........EASTERN SC......
 
 
 
CITY SKY/WX TMP DP RH WIND PRES REMARKS
 
CHARLESTON MOCLDY 45 41 86 CALM 30.25S  
BEAUFORT MCAS CLEAR 50 43 77 NE6 30.24S  
HILTON HEAD CLEAR 55 48 76 NE7 30.23S  
   
........CENTRAL SC......
 
 
 
CITY SKY/WX TMP DP RH WIND PRES REMARKS
 
COLUMBIA PTCLDY 40 34 79 CALM 30.24S  
ORANGEBURG CLOUDY 39 35 86 CALM 30.25R  
SUMTER SHAW CLEAR 40 32 72 CALM 30.22F  
   
........WESTERN SC......
 
 
 
CITY SKY/WX TMP DP RH WIND PRES REMARKS
 
GREENVILLE NOT AVBL  
ROCK HILL CLOUDY 36 29 75 CALM 30.23S  
ANDERSON CLOUDY 40 35 83 CALM 30.22R  
CLEMSON NOT AVBL  
GREENWOOD CLOUDY 37 31 78 CALM 30.23S  
 
   
..................COASTAL AND OFFSHORE REPORTS...............
 
 
   
...............LOCAL PIERS AND NC RESERVE.............
 
 
 
STATION/POSITION TIME SKY/WX TEMP WIND PRES VSBY
 
AIR SEA DIR/SP/G  
(UTC) (F) (DEG/KT/KT) (MB) (MI)  
JOHNY MRCER PIER 0136 57 63 100/ 7/ 8 1024.6S  
NC RESRV MASNBRO 0045 46 330/ 2 1024.0  
OCEAN CREST PIER NOT AVBL  
SPRINGMAID PIER 0148 1023.9R  
 
   
...............COASTAL AND OFFSHORE BUOYS.............
 
 
 
STATION/POSITION TIME SKY/WX TEMP WIND PRES VSBY
 
AIR SEA DIR/SP/G  
(UTC) (F) (DEG/KT/KT) (MB) (MI)  
DIMNDSHOAL 41025 0150 56 75 30/ 6/ 8 1024.9R  
WVE H/P(F/S)= 3/ 8 SWL H/P/D(F/S/D)= 3/ 60/ 8  
 
CAPE LOOKOUT 0200 360/ 2/ 2 1025.3R  
ONSLOW BAY 41036 NOT AVBL  
ONSLOW BAY 41064 0108 57 68 120/ 4/ 8 1024.8R  
ONSLOW BAY 41159 0130 68 N/A  
WVE H/P(F/S)= 2/ 9  
 
MASNBO INL 41110 0129 64 N/A  
WVE H/P(F/S)= 1/ 8  
 
WILM HARBR 41108 0130 62 N/A  
WVE H/P(F/S)= 1/ 8  
 
27SE WRITB 41037 0108 57 68 110/ 6/ 10 1024.4R  
FRYING PAN 41013 0150 60 70 80/ 8/ 10 1024.2S  
WVE H/P(F/S)= 2/ 8 SWL H/P/D(F/S/D)= 2/ 70/ 8  
 
SUNST NRSH 41024 0108 56 61 120/ 6/ 8 1024.1S  
CAPRS NRSH 41029 0108 55 62 90/ 8/ 14 1024.0R  
EDISTO 41004 0150 63 73 70/ 8/ 16 1023.4R  
WVE H/P(F/S)= 3/ 6 SWL H/P/D(F/S/D)= 2/ 50/ 6  
 
   
.........OFFSHORE BUOYS BEYOND 100 NM OFFSHORE........
 
   
....IN A TRIANGLE---HAT TO BERMUDA TO BAHAMAS TO HAT..
 
 
 
 
STATION/POSITION TIME SKY/WX TEMP WIND PRES VSBY
 
AIR SEA DIR/SP/G  
(UTC) (F) (DEG/KT/KT) (MB) (MI)  
150E HAT 41001 NOT AVBL  
W BERMUDA 41048 0150 69 76 40/ 16/ 21 1023.4R  
WVE H/P(F/S)= 8/ 9 SWL H/P/D(F/S/D)= 7/310/ 9  
 
ATLANTIC S 41049 0050 74 79 10/ 17/ 21 1019.0  
WVE H/P(F/S)= 4/ 8 SWL H/P/D(F/S/D)= 3/110/ 8  
 
E BAHAMAS 41046 0150 80 81 70/ 19/ 27 1016.0R  
WVE H/P(F/S)= 5/ 7 SWL H/P/D(F/S/D)= 3/ 70/ 8  
 
NE BAHAMAS 41047 0150 73 80 60/ 21/ 27 1019.1R  
WVE H/P(F/S)= 8/ 6 SWL H/P/D(F/S/D)= 3/320/ 9  
 
120E CANVRL41010 NOT AVBL  
 
END  
 
 
CLICK HERE TO GO TO PREVIOUS BULLETINS.

The Nexlab NC Page
The Nexlab SC Page Main Text Page